User: anonymous   Login
Location: Laterina
(43.5167°N, 11.7167°E)
Time: 01:20:38
(UTC+00:00)
Language:

Cosmos 1707 - Orbit

View from above orbital plane
View from above orbital plane
View from above satellite
View from above satellite

Ground track
Ground track

The orbit data is extracted from the following two-line orbital elements,

1 16326U 85113A   21136.35432978  .00000589  00000-0  30128-4 0  9990
2 16326  82.5123 242.8407 0011378  48.1431 312.0770 15.14662805933305
Epoch (UTC): 16 May 2021 08:30:14
Eccentricity: 0.0011378
inclination: 82.5123°
perigee height: 514 km
apogee height: 530 km
right ascension of ascending node: 242.8407°
argument of perigee: 48.1431°
revolutions per day: 15.14662805
mean anomaly at epoch: 312.0770°
orbit number at epoch: 93330

The dashed part of the orbit path shows where the satellite is in the earth's shadow,  

DLR